Terminal Aerodrome Forecast
Issued by NWS King Salmon, AK

Home | Current Version | Previous Version | Text Only | Print | Product List | Glossary On
Versions: 1 2 3 4 5 6 7 8 9 10 11 12 13 14 15 16 17 18 19 20 21 22 23 24 25 26 27 28 29 30 31 32 33 34 35 36 37 38 39 40 41 42 43
000
FTAK31 PANC 031121
TAFAKN
TAF
PAKN 031121Z 0312/0412 15007KT P6SM -RA BKN010 OVC015
      TEMPO 0312/0316 BKN009
     FM031900 17008KT P6SM VCSH SCT020 BKN035
     FM040300 VRB05KT P6SM VCFG SCT005 BKN025=

USA.gov is the U.S. government's official web portal to all federal, state and local government web resources and services.